Flag for Peru Weather past 2 weeks in Arequipa, Arequipa, Peru

Now
63 °F

Broken clouds.


Feels Like: 63 °F
Forecast: N/A
Wind: 13 mph from West

Location: Arequipa Airport

Current Time: Feb 28, 2015 at 4:13:51 PM

Latest Report: Feb 28, 2015 at 4:00 PM


Visibility: N/A

Pressure: 30.30 "Hg

Humidity: 56%

Dew point: 46 °F

Location of ArequipaLocation

Historic Weather in Arequipa — Graph

°F

Arequipa temperature yesterday

Maximum temperature yesterday: 66 °F (at 11:00 AM)
Minimum temperature yesterday: 48 °F (at 3:00 AM)
Average temperature yesterday: 56 °F

Past Weeks' High & Low Weather Summary

 TemperatureHumidityPressure
High70 °F (Feb 17, 1:00 PM)100% (Feb 13, 10:00 PM)30.39 "Hg (Feb 13, 10:00 PM)
Low46 °F (Feb 20, 2:00 AM)43% (Feb 17, 2:00 PM)30.21 "Hg (Feb 24, 2:00 PM)
Average57 °F83%30.29 "Hg
* Reported Feb 13 3:00 PM — Feb 28 3:00 PM, Arequipa, Weather by CustomWeather, © 2015

Note: Actual official high and low records may vary slightly from our data, if they occured in-between our weather recording intervals... More about our weather records

Advertising

Arequipa weather history for previous 24 hours

 ConditionsComfort  
Time TempWeatherWind HumidityBarometerVisibility
3:00 PM
Sat, Feb 28
64 °FPartly sunny.14 mph52%30.30 "HgN/A
2:00 PM66 °FPartly sunny.12 mph49%30.33 "HgN/A
1:00 PM68 °FPartly sunny.13 mph49%30.33 "HgN/A
12:00 PM64 °FPartly sunny.12 mph64%30.33 "HgN/A
11:00 AM66 °FPartly sunny.9 mph60%30.36 "HgN/A
10:00 AM64 °FScattered clouds.7 mph60%30.36 "HgN/A
9:00 AM61 °FPassing clouds.5 mph68%30.36 "HgN/A
8:00 AM59 °FSunny.3 mph72%30.33 "Hg10 mi
7:00 AM54 °FSunny.3 mph88%30.30 "Hg10 mi
6:00 AM50 °FSunny.5 mph88%30.30 "Hg10 mi
5:00 AM50 °FClear.3 mph94%30.27 "Hg10 mi
4:00 AM50 °FClear.2 mph94%30.27 "Hg10 mi
3:00 AM52 °FClear.No wind88%30.30 "Hg10 mi
2:00 AM54 °FClear.6 mph88%30.30 "Hg10 mi
1:00 AM52 °FClear.5 mph100%30.30 "Hg10 mi
12:00 AM54 °FFog.3 mph94%30.33 "Hg1 mi
11:00 PM
Fri, Feb 27
54 °FFog.6 mph94%30.33 "Hg1 mi
10:00 PM57 °FPassing clouds.7 mph88%30.33 "HgN/A
9:00 PM54 °FPassing clouds.3 mph100%30.36 "Hg4 mi
8:00 PM54 °FFog.2 mph100%30.33 "Hg1 mi
7:00 PM54 °FPassing clouds.9 mph100%30.33 "Hg4 mi
6:00 PM54 °FDrizzle. Fog.9 mph100%30.30 "Hg1 mi
5:00 PM55 °FBroken clouds.14 mph94%30.27 "Hg4 mi
4:00 PM59 °FBroken clouds.13 mph82%30.27 "HgN/A
Weather by CustomWeather, © 2015

See weather overviewHow to use our weather pages